New Ulm, MN

11:40 AM CST on February 26, 2017 (GMT -0600)
New Ulm Municipal

Weather History for KULM - June, 2013

Change the Weather History Date:

Monday, June 24, 2013

  Actual Average Record
Temperature  
Mean Temperature 70 °F -  
Max Temperature 77 °F 82 °F 101 °F (1988)
Min Temperature 62 °F 58 °F 44 °F (1972)
Cooling Degree Days 4    
Growing Degree Days 20 (Base 50)    
Moisture  
Dew Point 68 °F    
Average Humidity 93    
Maximum Humidity 100    
Minimum Humidity 78    
Precipitation  
Precipitation 0.05 in - - ()
Sea Level Pressure  
Sea Level Pressure 29.86 in    
Wind  
Wind Speed 4 mph (SE)    
Max Wind Speed 16 mph    
Max Gust Speed 23 mph    
Visibility 9 miles    
Events Rain , Thunderstorm    
Averages and records for this station are not official NWS values.
T = Trace of Precipitation, MM = Missing Value Source: NWS Daily Summary

Daily Weather History Graph

Daily Weather History Graph

Search for Another Location

Airport or City:

Trip Planner

Search our weather history database for the weather conditions in past years. The results will help you decide how hot, cold, wet, or windy it might be!

Date:

Astronomy

Jun. 24, 2013 Rise Set
Actual Time 5:34 AM CDT 9:06 PM CDT
Civil Twilight 4:58 AM CDT 9:42 PM CDT
Nautical Twilight 4:09 AM CDT 10:31 PM CDT
Astronomical Twilight 3:07 AM CDT 11:33 PM CDT
Moon 10:03 PM CDT (6/24) 7:07 AM CDT (6/24)
Length of Visible Light 16h 44m
Length of Day
15h 31m
Full, 98% of the Moon is Illuminated
Jun 24
Full
Jun 29
Last Quarter
Jul 8
New
Jul 15
First Quarter
Jul 22
Full

Hourly Weather History & Observations

Time (CDT) Temp. Dew Point Humidity Pressure Visibility Wind Dir Wind Speed Gust Speed Precip Events Conditions
12:13 AM 66.2 °F 66.2 °F 100% 29.91 in 7.0 mi Calm Calm - N/A   Clear
12:33 AM 66.2 °F 66.2 °F 100% 29.91 in 10.0 mi Calm Calm - N/A   Clear
12:53 AM 66.2 °F 66.2 °F 100% 29.91 in 10.0 mi South 3.5 mph - N/A   Clear
1:13 AM 66.2 °F 66.2 °F 100% 29.92 in 10.0 mi Calm Calm - N/A   Clear
1:33 AM 66.2 °F 64.4 °F 94% 29.91 in 10.0 mi Calm Calm - N/A   Clear
1:53 AM 64.4 °F 64.4 °F 100% 29.91 in 10.0 mi Calm Calm - N/A   Clear
2:13 AM 66.2 °F 66.2 °F 100% 29.91 in 10.0 mi Calm Calm - N/A   Clear
2:33 AM 64.4 °F 64.4 °F 100% 29.90 in 10.0 mi Calm Calm - N/A   Clear
2:53 AM 64.4 °F 64.4 °F 100% 29.90 in 10.0 mi Calm Calm - N/A   Clear
3:13 AM 64.4 °F 64.4 °F 100% 29.89 in 10.0 mi Calm Calm - N/A   Clear
3:33 AM 64.4 °F 64.4 °F 100% 29.89 in 10.0 mi Calm Calm - N/A   Clear
3:53 AM 64.4 °F 64.4 °F 100% 29.89 in 7.0 mi Calm Calm - N/A   Clear
4:13 AM 64.4 °F 64.4 °F 100% 29.89 in 7.0 mi Calm Calm - N/A   Clear
4:33 AM 62.6 °F 62.6 °F 100% 29.89 in 10.0 mi Calm Calm - N/A   Clear
4:52 AM 64.4 °F 64.4 °F 100% 29.90 in 10.0 mi Calm Calm - N/A   Clear
5:13 AM 64.4 °F 64.4 °F 100% 29.90 in 7.0 mi Calm Calm - N/A   Clear
5:33 AM 64.4 °F 64.4 °F 100% 29.89 in 3.0 mi Calm Calm - N/A   Clear
5:52 AM 64.4 °F 64.4 °F 100% 29.90 in 3.0 mi Calm Calm - N/A   Clear
6:13 AM 64.4 °F 64.4 °F 100% 29.90 in 4.0 mi Calm Calm - N/A   Clear
6:33 AM 64.4 °F 64.4 °F 100% 29.91 in 10.0 mi Calm Calm - N/A   Clear
6:52 AM 66.2 °F 66.2 °F 100% 29.91 in 10.0 mi Calm Calm - N/A   Clear
7:13 AM 66.2 °F 66.2 °F 100% 29.89 in 10.0 mi East 4.6 mph - N/A   Clear
7:33 AM 66.2 °F 66.2 °F 100% 29.87 in 10.0 mi ESE 5.8 mph - N/A   Clear
7:53 AM 69.8 °F 68.0 °F 94% 29.87 in 10.0 mi East 5.8 mph - N/A   Clear
8:13 AM 71.6 °F 69.8 °F 94% 29.88 in 10.0 mi ESE 5.8 mph - N/A   Clear
8:33 AM 71.6 °F 69.8 °F 94% 29.89 in 10.0 mi ESE 4.6 mph - N/A   Clear
8:53 AM 73.4 °F 69.8 °F 88% 29.89 in 10.0 mi SSE 5.8 mph - N/A   Clear
9:13 AM 73.4 °F 69.8 °F 88% 29.90 in 10.0 mi SSE 5.8 mph - N/A   Clear
9:33 AM 73.4 °F 69.8 °F 88% 29.89 in 10.0 mi SE 6.9 mph - N/A   Clear
9:53 AM 75.2 °F 69.8 °F 83% 29.89 in 10.0 mi ESE 3.5 mph - N/A   Clear
10:13 AM 75.2 °F 69.8 °F 83% 29.88 in 10.0 mi SE 5.8 mph - N/A   Clear
10:32 AM 75.2 °F 71.6 °F 89% 29.89 in 10.0 mi SSE 6.9 mph - N/A   Clear
10:53 AM 75.2 °F 71.6 °F 89% 29.88 in 10.0 mi SE 9.2 mph - N/A   Scattered Clouds
11:13 AM 77.0 °F 71.6 °F 83% 29.87 in 10.0 mi SE 10.4 mph - N/A   Scattered Clouds
11:32 AM 75.2 °F 71.6 °F 89% 29.87 in 10.0 mi SSE 10.4 mph - N/A Thunderstorm Scattered Clouds
11:53 AM 75.2 °F 71.6 °F 89% 29.86 in 10.0 mi SE 10.4 mph - N/A   Scattered Clouds
12:13 PM 73.4 °F 73.4 °F 100% 29.85 in 2.0 mi SE 5.8 mph - 0.05 in Rain , Thunderstorm Heavy Thunderstorms and Rain
12:32 PM 73.4 °F 73.4 °F 100% 29.85 in 5.0 mi ESE 4.6 mph - 0.05 in   Scattered Clouds
12:53 PM 73.4 °F 73.4 °F 100% 29.86 in 7.0 mi NE 4.6 mph - 0.05 in   Scattered Clouds
1:13 PM 73.4 °F 73.4 °F 100% 29.85 in 5.0 mi East 3.5 mph - N/A   Scattered Clouds
1:32 PM 73.4 °F 73.4 °F 100% 29.84 in 7.0 mi ESE 9.2 mph - N/A   Scattered Clouds
1:53 PM 73.4 °F 73.4 °F 100% 29.83 in 10.0 mi SE 11.5 mph - N/A   Scattered Clouds
2:13 PM 75.2 °F 73.4 °F 94% 29.82 in 10.0 mi SE 15.0 mph - N/A   Clear
2:32 PM 75.2 °F 71.6 °F 89% 29.82 in 10.0 mi SSE 16.1 mph - N/A   Clear
2:53 PM 75.2 °F 71.6 °F 89% 29.82 in 10.0 mi SSE 15.0 mph 21.9 mph N/A   Clear
3:13 PM 75.2 °F 71.6 °F 89% 29.82 in 10.0 mi South 13.8 mph 17.3 mph N/A   Clear
3:32 PM 73.4 °F 71.6 °F 94% 29.82 in 10.0 mi South 15.0 mph 23.0 mph N/A   Clear
3:53 PM 73.4 °F 69.8 °F 88% 29.84 in 10.0 mi South 12.7 mph - N/A   Clear
4:13 PM 73.4 °F 68.0 °F 83% 29.84 in 10.0 mi South 11.5 mph - N/A   Clear
4:33 PM 73.4 °F 69.8 °F 88% 29.83 in 10.0 mi SSE 5.8 mph - N/A Rain Light Rain
4:53 PM 73.4 °F 69.8 °F 88% 29.84 in 10.0 mi SSE 6.9 mph - N/A   Clear
5:12 PM 73.4 °F 69.8 °F 88% 29.83 in 10.0 mi SSE 5.8 mph - N/A Rain Light Rain
5:33 PM 73.4 °F 69.8 °F 88% 29.83 in 10.0 mi South 6.9 mph - N/A   Clear
5:53 PM 73.4 °F 69.8 °F 88% 29.82 in 10.0 mi South 10.4 mph - N/A   Clear
6:12 PM 73.4 °F 68.0 °F 83% 29.81 in 10.0 mi South 10.4 mph - N/A   Clear
6:33 PM 73.4 °F 66.2 °F 78% 29.82 in 10.0 mi South 6.9 mph - N/A   Clear
6:53 PM 73.4 °F 68.0 °F 83% 29.82 in 10.0 mi South 3.5 mph - N/A   Clear
7:12 PM 73.4 °F 68.0 °F 83% 29.82 in 10.0 mi South 3.5 mph - N/A   Clear
7:33 PM 73.4 °F 68.0 °F 83% 29.81 in 10.0 mi SSE 3.5 mph - N/A   Clear
7:53 PM 73.4 °F 66.2 °F 78% 29.81 in 10.0 mi SE 5.8 mph - N/A   Clear
8:13 PM 71.6 °F 66.2 °F 83% 29.81 in 10.0 mi SE 8.1 mph - N/A   Clear
8:33 PM 71.6 °F 66.2 °F 83% 29.81 in 10.0 mi ESE 5.8 mph - N/A   Clear
8:53 PM 71.6 °F 68.0 °F 88% 29.79 in 10.0 mi SE 6.9 mph - N/A   Clear
9:13 PM 69.8 °F 68.0 °F 94% 29.80 in 10.0 mi SE 5.8 mph - N/A   Clear
9:33 PM 69.8 °F 68.0 °F 94% 29.80 in 10.0 mi SE 4.6 mph - N/A   Clear
9:52 PM 69.8 °F 68.0 °F 94% 29.80 in 10.0 mi SE 5.8 mph - N/A   Clear
10:13 PM 69.8 °F 68.0 °F 94% 29.80 in 10.0 mi SE 6.9 mph - N/A   Clear
10:33 PM 69.8 °F 68.0 °F 94% 29.80 in 10.0 mi SE 6.9 mph - N/A   Clear
10:52 PM 69.8 °F 66.2 °F 88% 29.81 in 10.0 mi SE 8.1 mph - N/A   Clear
11:13 PM 68.0 °F 66.2 °F 94% 29.81 in 10.0 mi SE 8.1 mph - N/A   Clear
11:33 PM 68.0 °F 66.2 °F 94% 29.81 in 10.0 mi SSE 8.1 mph - N/A   Clear
11:52 PM 68.0 °F 66.2 °F 94% 29.81 in 10.0 mi SE 5.8 mph - N/A   Scattered Clouds